Location: TAAA CAC
(31.8680°N, 109.5150°W)
Time: 15:37:51
(UTC-07:00)

ARIANE 6 FM1 Upper Stage - Visible Passes

Search period start: 12 March 2026 00:00
Search period end: 22 March 2026 00:00
Orbit: 523 x 607 km, 62.0° (Epoch: 12 March)

Date Brightness Start Highest point End Pass type
(mag) Time Alt. Az. Time Alt. Az. Time Alt. Az.
12 Mar 5.7 03:46:00 12° NE 03:46:00 12° NE 03:46:23 10° NE visible
12 Mar 4.6 05:22:01 14° NW 05:22:01 14° NW 05:23:46 10° NNW visible
13 Mar 5.8 03:46:10 11° NE 03:46:10 11° NE 03:46:16 10° NE visible
